ATLAS 5 CENTAUR DEB, 44645

Orbit data source: Space-Track

ATLAS 5 CENTAUR DEB, 44645 is space debris in HEO originally from a launch on Wed, 17 Oct 2018 UTC launched from the Air Force Eastern Test Range (AFETR). Debris objects in space refer to the collection of defunct objects orbiting the Earth. Examples of debris include non-operational satellites, rocket bodies, and fragments generated from explosions, collisions, or faulty payload assembly.

Loading next visibility...
Identifier
44645, 2018-079F
Orbit
HEO
Country
Flag of USUS
Related business
Flag of USUnited Launch Alliance/Lockheed Martin (US)
Manufacturer
ULA Decatur
Mission
Spacecraft
Bus & Motor
Unknown
Mass
Unknown
Launch date (UTC)
2018-10-17 (7 years ago)
Launch vehicle
Unknown
Launch site
Air Force Eastern Test Range (AFETR)
Object type
Payload
Rocket body
Debris
Shape & HBR
Unknown
Radar Cross Section
RCS unknown

Expand to show TLE details & history
Last TLE update: 2 days ago

TLE from 2 days ago
0 ATLAS 5 CENTAUR DEB
1 44645U 18079F   25259.41916110 -.00000212  00000-0  00000-0 0  9990
2 44645  13.1640  41.2022 4635422 306.4912  19.1005  1.89805910 47842
Epoch: 2025-09-16T10:03Z
TLE epoch observation values (Epoch: 2025-09-16T10:03:35.519Z)
Latitude
-0.00002°
Longitude
-105.25956°
Altitude
10,556.937 km
Speed
5.71 km/s
True Right ascension
02h 44m 59s
True Declination
0° 00' 00"
Sunlit
Object was in daylight at epoch
Visualization orbit readout
Latitude
Unknown
Longitude
Unknown
Altitude
Unknown
Speed
Unknown
Apparent Right ascension
Unknown
Apparent Declination
Unknown
Sunlit
N/A
Visualization observer readout
Local Sidereal Time
17:43:41
Azimuth
Unknown
Elevation
Unknown
Doppler factor
Unknown
Orbital elements
Apogee altitude
33,952.424 km
Perigee altitude
8,404.931 km
Semi-major axis
27,556.815 km
Eccentricity
0.46354
Inclination
13.164°
RAAN
41.2022°
Arg. of periapsis
306.4912°
True anomaly
53.47369°
Mean anomaly
19.1005°
Eccentric anomaly
33.9222°
Mean motion
0.47446 °/min
Orbital period
758.76 mins
BSTAR
0
Loading maneuver chart data...
Computing Atmospheric mass density...

Documentation

Showing up to 5 results
|